TimeEDT,TemperatureF,Dew PointF,Humidity,Sea Level PressureIn,VisibilityMPH,Wind Direction,Wind SpeedMPH,Gust SpeedMPH,PrecipitationIn,Events,Conditions,WindDirDegrees,DateUTC
12:20 AM,46.9,43.0,86,29.72,4.0,SE,13.8,18.4,0.06,Rain,Rain,130,2013-04-01 04:20:00
12:52 AM,48.0,43.0,83,29.67,5.0,ESE,16.1,24.2,0.10,Rain,Light Rain,120,2013-04-01 04:52:00
1:21 AM,48.0,43.0,83,29.64,6.0,SE,13.8,24.2,0.02,Rain,Light Rain,130,2013-04-01 05:21:00
1:52 AM,48.0,43.0,83,29.60,9.0,SE,12.7,24.2,0.04,Rain,Light Rain,140,2013-04-01 05:52:00
2:22 AM,48.0,44.1,86,29.57,5.0,SE,12.7,-,0.00,Rain,Light Rain,140,2013-04-01 06:22:00
2:41 AM,48.0,45.0,89,29.56,7.0,South,6.9,-,0.00,,Overcast,190,2013-04-01 06:41:00
2:52 AM,48.9,45.0,86,29.57,8.0,South,8.1,-,0.00,,Overcast,190,2013-04-01 06:52:00
3:44 AM,48.0,44.1,86,29.56,2.0,SSW,9.2,-,N/A,,Overcast,200,2013-04-01 07:44:00
3:50 AM,46.4,44.6,93,29.56,1.2,SSW,8.1,-,N/A,,Overcast,210,2013-04-01 07:50:00
3:51 AM,46.9,44.1,90,29.56,1.2,SSW,8.1,-,N/A,,Overcast,210,2013-04-01 07:51:00
4:06 AM,46.9,44.1,90,29.56,1.8,SW,9.2,-,N/A,,Overcast,230,2013-04-01 08:06:00
4:15 AM,46.9,44.1,90,29.55,2.5,SW,5.8,-,N/A,,Overcast,230,2013-04-01 08:15:00
4:23 AM,46.9,44.1,90,29.56,4.0,WSW,5.8,-,N/A,,Overcast,240,2013-04-01 08:23:00
4:41 AM,48.0,44.1,86,29.57,7.0,SW,6.9,-,N/A,,Overcast,230,2013-04-01 08:41:00
4:52 AM,48.0,44.1,86,29.57,8.0,WSW,6.9,-,N/A,,Overcast,250,2013-04-01 08:52:00
5:45 AM,48.9,44.1,83,29.59,10.0,West,12.7,21.9,N/A,,Overcast,260,2013-04-01 09:45:00
5:52 AM,48.9,44.1,83,29.60,10.0,West,11.5,21.9,N/A,,Overcast,260,2013-04-01 09:52:00
6:37 AM,46.9,41.0,80,29.61,10.0,West,13.8,21.9,N/A,,Scattered Clouds,270,2013-04-01 10:37:00
6:50 AM,46.4,41.0,81,29.62,10.0,West,12.7,21.9,N/A,,Mostly Cloudy,280,2013-04-01 10:50:00
6:52 AM,46.9,41.0,80,29.62,10.0,West,9.2,21.9,N/A,,Mostly Cloudy,270,2013-04-01 10:52:00
7:25 AM,46.0,39.9,79,29.63,10.0,West,11.5,18.4,N/A,,Scattered Clouds,270,2013-04-01 11:25:00
7:29 AM,46.0,39.9,79,29.62,10.0,West,11.5,18.4,N/A,,Mostly Cloudy,280,2013-04-01 11:29:00
7:52 AM,46.0,39.9,79,29.64,10.0,West,10.4,-,N/A,,Overcast,270,2013-04-01 11:52:00
8:02 AM,46.9,39.9,77,29.64,10.0,West,10.4,-,N/A,,Overcast,280,2013-04-01 12:02:00
8:37 AM,48.9,39.9,71,29.65,10.0,WSW,5.8,-,N/A,,Scattered Clouds,250,2013-04-01 12:37:00
8:52 AM,48.9,39.9,71,29.65,10.0,WSW,8.1,-,N/A,,Partly Cloudy,240,2013-04-01 12:52:00
9:52 AM,53.1,39.0,59,29.65,10.0,West,8.1,-,N/A,,Partly Cloudy,280,2013-04-01 13:52:00
10:52 AM,55.0,39.9,57,29.64,10.0,West,11.5,-,N/A,,Partly Cloudy,270,2013-04-01 14:52:00
11:52 AM,57.0,39.9,53,29.64,10.0,SSW,12.7,-,N/A,,Clear,200,2013-04-01 15:52:00
12:52 PM,57.9,39.9,51,29.62,10.0,SSW,12.7,23.0,N/A,,Clear,210,2013-04-01 16:52:00
1:52 PM,57.9,41.0,53,29.59,10.0,South,16.1,23.0,N/A,,Clear,190,2013-04-01 17:52:00
2:52 PM,59.0,41.0,51,29.57,10.0,SW,15.0,27.6,N/A,,Clear,220,2013-04-01 18:52:00
3:52 PM,57.9,42.1,56,29.55,10.0,SSW,11.5,25.3,N/A,,Clear,210,2013-04-01 19:52:00
4:52 PM,55.9,41.0,57,29.56,10.0,SSW,16.1,29.9,N/A,,Mostly Cloudy,210,2013-04-01 20:52:00
5:15 PM,50.0,42.1,74,29.61,10.0,West,11.5,27.6,0.01,Rain,Light Rain,270,2013-04-01 21:15:00
5:26 PM,48.9,43.0,80,29.62,2.5,West,10.4,21.9,0.03,Rain,Rain,270,2013-04-01 21:26:00
5:30 PM,48.9,43.0,80,29.62,3.0,West,11.5,-,0.04,Rain,Rain,280,2013-04-01 21:30:00
5:52 PM,48.0,43.0,83,29.62,10.0,WNW,10.4,-,0.05,,Overcast,290,2013-04-01 21:52:00
6:24 PM,48.0,41.0,77,29.63,10.0,West,11.5,19.6,N/A,,Overcast,280,2013-04-01 22:24:00
6:52 PM,43.0,33.1,68,29.67,10.0,NW,15.0,33.4,0.00,Rain,Light Rain,310,2013-04-01 22:52:00
7:52 PM,43.0,30.0,60,29.70,10.0,West,9.2,-,0.00,,Overcast,280,2013-04-01 23:52:00
8:52 PM,42.1,25.0,51,29.73,10.0,WNW,12.7,20.7,N/A,,Overcast,290,2013-04-02 00:52:00
9:52 PM,41.0,15.1,35,29.76,10.0,NW,11.5,27.6,N/A,,Clear,310,2013-04-02 01:52:00
10:52 PM,39.0,12.0,33,29.79,10.0,WNW,15.0,20.7,N/A,,Clear,300,2013-04-02 02:52:00
11:52 PM,37.0,10.9,34,29.81,10.0,WNW,9.2,-,N/A,,Clear,300,2013-04-02 03:52:00